TimeMST,TemperatureF,Dew PointF,Humidity,Sea Level PressureIn,VisibilityMPH,Wind Direction,Wind SpeedMPH,Gust SpeedMPH,PrecipitationIn,Events,Conditions,WindDirDegrees,DateUTC
12:15 AM,55.4,23.0,29,29.77,10.0,West,18.4,-,N/A,,Clear,260,2013-12-03 07:15:00
12:35 AM,55.4,23.0,29,29.76,10.0,West,20.7,25.3,N/A,,Clear,260,2013-12-03 07:35:00
12:55 AM,55.4,23.0,29,29.76,10.0,WSW,19.6,-,N/A,,Clear,250,2013-12-03 07:55:00
1:15 AM,53.6,23.0,30,29.76,10.0,WSW,13.8,-,N/A,,Clear,250,2013-12-03 08:15:00
1:35 AM,50.0,24.8,37,29.76,10.0,West,12.7,-,N/A,,Clear,260,2013-12-03 08:35:00
1:55 AM,50.0,24.8,37,29.75,10.0,West,11.5,-,N/A,,Clear,260,2013-12-03 08:55:00
2:15 AM,50.0,24.8,37,29.74,10.0,WSW,11.5,-,N/A,,Clear,240,2013-12-03 09:15:00
2:35 AM,50.0,23.0,35,29.74,10.0,WSW,11.5,-,N/A,,Clear,240,2013-12-03 09:35:00
2:55 AM,51.8,23.0,33,29.74,10.0,WSW,9.2,-,N/A,,Clear,250,2013-12-03 09:55:00
3:15 AM,51.8,23.0,33,29.73,10.0,WSW,10.4,-,N/A,,Clear,240,2013-12-03 10:15:00
3:35 AM,53.6,23.0,30,29.72,10.0,WSW,13.8,-,N/A,,Clear,240,2013-12-03 10:35:00
3:55 AM,53.6,23.0,30,29.71,10.0,WSW,12.7,-,N/A,,Clear,250,2013-12-03 10:55:00
4:15 AM,53.6,23.0,30,29.70,10.0,WSW,16.1,-,N/A,,Clear,250,2013-12-03 11:15:00
4:35 AM,55.4,23.0,29,29.70,10.0,WSW,16.1,-,N/A,,Clear,240,2013-12-03 11:35:00
4:55 AM,53.6,23.0,30,29.70,10.0,WSW,17.3,24.2,N/A,,Clear,240,2013-12-03 11:55:00
5:15 AM,55.4,19.4,25,29.70,10.0,WSW,17.3,-,N/A,,Clear,250,2013-12-03 12:15:00
5:35 AM,55.4,19.4,25,29.70,10.0,WSW,11.5,-,N/A,,Clear,240,2013-12-03 12:35:00
5:55 AM,53.6,21.2,28,29.71,10.0,NNW,3.5,-,N/A,,Clear,340,2013-12-03 12:55:00
6:15 AM,53.6,19.4,26,29.72,10.0,Calm,Calm,-,N/A,,Clear,0,2013-12-03 13:15:00
6:35 AM,53.6,19.4,26,29.72,10.0,Calm,Calm,-,N/A,,Clear,0,2013-12-03 13:35:00
6:55 AM,50.0,19.4,30,29.72,10.0,Calm,Calm,-,N/A,,Clear,0,2013-12-03 13:55:00
7:15 AM,51.8,21.2,30,29.72,10.0,SW,8.1,-,N/A,,Clear,230,2013-12-03 14:15:00
7:35 AM,53.6,19.4,26,29.73,10.0,WSW,13.8,-,N/A,,Clear,240,2013-12-03 14:35:00
7:55 AM,55.4,21.2,26,29.74,10.0,WSW,10.4,-,N/A,,Clear,240,2013-12-03 14:55:00
8:15 AM,57.2,21.2,25,29.74,10.0,WSW,16.1,21.9,N/A,,Clear,240,2013-12-03 15:15:00
8:35 AM,59.0,21.2,23,29.74,10.0,WSW,18.4,25.3,N/A,,Clear,240,2013-12-03 15:35:00
8:55 AM,59.0,23.0,25,29.74,10.0,WSW,16.1,-,N/A,,Clear,240,2013-12-03 15:55:00
9:15 AM,62.6,23.0,22,29.75,10.0,WSW,18.4,21.9,N/A,,Clear,240,2013-12-03 16:15:00
9:35 AM,64.4,23.0,21,29.74,10.0,WSW,18.4,25.3,N/A,,Clear,240,2013-12-03 16:35:00
9:55 AM,64.4,23.0,21,29.74,10.0,WSW,18.4,-,N/A,,Clear,240,2013-12-03 16:55:00
10:15 AM,66.2,23.0,19,29.74,10.0,WSW,16.1,24.2,N/A,,Clear,240,2013-12-03 17:15:00
10:35 AM,66.2,21.2,18,29.74,10.0,WSW,16.1,21.9,N/A,,Clear,250,2013-12-03 17:35:00
10:55 AM,66.2,23.0,19,29.72,10.0,WSW,18.4,-,N/A,,Clear,240,2013-12-03 17:55:00
11:15 AM,68.0,21.2,17,29.71,10.0,WSW,20.7,27.6,N/A,,Clear,240,2013-12-03 18:15:00
11:35 AM,71.6,21.2,15,29.70,10.0,SW,19.6,25.3,N/A,,Clear,230,2013-12-03 18:35:00
11:55 AM,71.6,19.4,14,29.69,10.0,SW,23.0,28.8,N/A,,Clear,230,2013-12-03 18:55:00
12:15 PM,69.8,19.4,15,29.67,10.0,SW,20.7,-,N/A,,Clear,220,2013-12-03 19:15:00
12:35 PM,71.6,19.4,14,29.66,10.0,SW,18.4,23.0,N/A,,Clear,220,2013-12-03 19:35:00
12:55 PM,73.4,19.4,13,29.65,10.0,WSW,19.6,26.5,N/A,,Clear,240,2013-12-03 19:55:00
1:15 PM,75.2,19.4,12,29.64,10.0,SW,20.7,25.3,N/A,,Clear,230,2013-12-03 20:15:00
1:35 PM,75.2,17.6,11,29.63,10.0,SW,21.9,29.9,N/A,,Clear,230,2013-12-03 20:35:00
1:55 PM,75.2,17.6,11,29.62,10.0,WSW,25.3,32.2,N/A,,Clear,240,2013-12-03 20:55:00
2:15 PM,75.2,15.8,11,29.62,10.0,WSW,25.3,35.7,N/A,,Clear,240,2013-12-03 21:15:00
2:35 PM,75.2,15.8,11,29.61,10.0,SW,29.9,39.1,N/A,,Clear,230,2013-12-03 21:35:00
2:55 PM,75.2,14.0,10,29.61,10.0,WSW,29.9,40.3,N/A,,Clear,240,2013-12-03 21:55:00
3:15 PM,73.4,14.0,10,29.61,10.0,WSW,27.6,36.8,N/A,,Clear,240,2013-12-03 22:15:00
3:35 PM,73.4,14.0,10,29.61,10.0,SW,27.6,36.8,N/A,,Clear,230,2013-12-03 22:35:00
3:55 PM,71.6,14.0,11,29.61,10.0,WSW,28.8,39.1,N/A,,Clear,240,2013-12-03 22:55:00
4:15 PM,71.6,14.0,11,29.61,10.0,WSW,31.1,36.8,N/A,,Clear,250,2013-12-03 23:15:00
4:35 PM,69.8,12.2,11,29.62,10.0,WSW,25.3,36.8,N/A,,Clear,250,2013-12-03 23:35:00
4:55 PM,66.2,14.0,13,29.64,10.0,SSW,13.8,23.0,N/A,,Clear,210,2013-12-03 23:55:00
5:15 PM,60.8,17.6,19,29.65,10.0,South,12.7,-,N/A,,Clear,190,2013-12-04 00:15:00
5:35 PM,60.8,17.6,19,29.65,10.0,SSW,18.4,23.0,N/A,,Clear,200,2013-12-04 00:35:00
5:55 PM,59.0,19.4,22,29.65,10.0,SSW,15.0,-,N/A,,Clear,210,2013-12-04 00:55:00
6:15 PM,59.0,19.4,22,29.66,10.0,SW,15.0,-,N/A,,Clear,220,2013-12-04 01:15:00
6:35 PM,60.8,19.4,20,29.66,10.0,SSW,17.3,-,N/A,,Clear,210,2013-12-04 01:35:00
6:55 PM,62.6,17.6,18,29.67,10.0,SSW,20.7,26.5,N/A,,Clear,210,2013-12-04 01:55:00
7:15 PM,62.6,17.6,18,29.67,10.0,SSW,19.6,-,N/A,,Clear,210,2013-12-04 02:15:00
7:35 PM,62.6,17.6,18,29.67,10.0,SSW,16.1,-,N/A,,Clear,210,2013-12-04 02:35:00
7:55 PM,59.0,19.4,22,29.68,10.0,SW,15.0,-,N/A,,Clear,220,2013-12-04 02:55:00
8:15 PM,62.6,17.6,18,29.68,10.0,SW,15.0,-,N/A,,Clear,220,2013-12-04 03:15:00
8:35 PM,59.0,19.4,22,29.68,10.0,SSW,16.1,-,N/A,,Clear,210,2013-12-04 03:35:00
8:55 PM,59.0,19.4,22,29.68,10.0,SW,12.7,-,N/A,,Clear,220,2013-12-04 03:55:00
9:15 PM,55.4,19.4,25,29.68,10.0,SSW,8.1,-,N/A,,Clear,200,2013-12-04 04:15:00
9:35 PM,55.4,19.4,25,29.68,10.0,SSE,8.1,-,N/A,,Clear,160,2013-12-04 04:35:00
9:55 PM,57.2,19.4,23,29.68,10.0,SSE,5.8,-,N/A,,Clear,160,2013-12-04 04:55:00
10:15 PM,55.4,21.2,26,29.68,10.0,South,4.6,-,N/A,,Clear,180,2013-12-04 05:15:00
10:35 PM,55.4,21.2,26,29.68,10.0,SW,9.2,-,N/A,,Clear,230,2013-12-04 05:35:00
10:55 PM,59.0,23.0,25,29.68,10.0,SW,19.6,25.3,N/A,,Clear,230,2013-12-04 05:55:00
11:15 PM,59.0,23.0,25,29.68,10.0,WSW,15.0,-,N/A,,Clear,250,2013-12-04 06:15:00
11:35 PM,57.2,24.8,29,29.69,10.0,SSW,6.9,-,N/A,,Clear,210,2013-12-04 06:35:00
11:55 PM,55.4,24.8,31,29.69,10.0,Calm,Calm,-,N/A,,Clear,0,2013-12-04 06:55:00